Location: Brno
(49.2000°N, 16.6330°E)
Time: 09:39:30
(UTC+02:00)

ISS - Pass Details

Date: 23 May 2021
Orbit: 417 x 422 km, 51.6° (Epoch: 13 June)

Event Time Altitude Azimuth Distance (km) Brightness Sun altitude
Rises 00:34:41 0° 289° (WNW) 2,370 0.4 -20.1°
Reaches altitude 10° 00:36:51 10° 282° (WNW) 1,504 -0.8 -20.2°
Enters shadow 00:38:20 22° 268° (W) 971 -1.9 -20.2°
